Henderson, TX

9:04 PM CDT on August 16, 2017 (GMT -0500)
Henderson

Weather History for KRFI - May, 2013

Change the Weather History Date:

Wednesday, May 8, 2013

  Actual Average (KGGG) Record (KGGG)
Temperature  
Mean Temperature 70 °F -  
Max Temperature 86 °F 81 °F 93 °F (2003)
Min Temperature 54 °F 60 °F 41 °F (1992)
Cooling Degree Days 5    
Growing Degree Days 20 (Base 50)    
Moisture  
Dew Point 53 °F    
Average Humidity 58    
Maximum Humidity 91    
Minimum Humidity 30    
Precipitation  
Precipitation 0.00 in - - ()
Sea Level Pressure  
Sea Level Pressure 30.00 in    
Wind  
Wind Speed 4 mph (SSE)    
Max Wind Speed 13 mph    
Max Gust Speed -    
Averages and records for this station are not official NWS values.
T = Trace of Precipitation, MM = Missing Value Source: NWS Daily Summary

Daily Weather History Graph

Daily Weather History Graph

Search for Another Location

Airport or City:

Trip Planner

Search our weather history database for the weather conditions in past years. The results will help you decide how hot, cold, wet, or windy it might be!

Date:

Astronomy

May. 08, 2013 Rise Set
Actual Time 6:26 AM CDT 8:05 PM CDT
Civil Twilight 6:00 AM CDT 8:31 PM CDT
Nautical Twilight 5:28 AM CDT 9:03 PM CDT
Astronomical Twilight 4:55 AM CDT 9:37 PM CDT
Moon 5:30 AM CDT (5/8) 7:07 PM CDT (5/8)
Length of Visible Light 14h 31m
Length of Day
13h 38m
Waning Crescent, 2% of the Moon is Illuminated
May 8
Waning Crescent
May 9
New
May 17
First Quarter
May 24
Full
May 31
Last Quarter

Hourly Weather History & Observations

Time (CDT) Temp. Heat Index Dew Point Humidity Pressure Visibility Wind Dir Wind Speed Gust Speed Precip Events Conditions
12:15 AM - - - N/A% - - North - - N/A   Unknown
12:35 AM 59.4 °F - 53.1 °F 80% 30.01 in - Calm Calm - N/A   Unknown
12:55 AM 59.2 °F - 52.2 °F 78% 30.01 in - Calm Calm - N/A   Unknown
1:15 AM - - - N/A% - - North - - N/A   Unknown
1:35 AM 58.5 °F - 52.2 °F 80% 30.00 in - Calm Calm - N/A   Unknown
1:55 AM 58.5 °F - 52.2 °F 80% 30.00 in - Calm Calm - N/A   Unknown
2:15 AM 57.2 °F - 52.2 °F 83% - - North - - N/A   Unknown
2:35 AM 58.6 °F - 51.8 °F 78% 30.00 in - Calm Calm - N/A   Unknown
2:55 AM 57.9 °F - 51.8 °F 80% 29.99 in - Calm Calm - N/A   Unknown
3:15 AM - - - N/A% - - North - - N/A   Unknown
3:35 AM 58.6 °F - 51.1 °F 76% 29.99 in - Calm Calm - N/A   Unknown
3:55 AM 57.9 °F - 51.6 °F 80% 30.00 in - Calm Calm - N/A   Unknown
4:35 AM 57.7 °F - 51.8 °F 81% 30.00 in - North - - N/A   Unknown
4:55 AM 55.6 °F - 52.0 °F 88% 30.00 in - Calm Calm - N/A   Unknown
5:35 AM 55.8 °F - 52.3 °F 88% 30.01 in - North - - N/A   Unknown
5:55 AM 55.4 °F - 52.3 °F 89% 30.01 in - Calm Calm - N/A   Unknown
6:35 AM - - - N/A% - - North - - N/A   Unknown
6:55 AM 54.7 °F - 52.2 °F 91% 30.03 in - Calm Calm - N/A   Unknown
7:15 AM 56.5 °F - 53.6 °F 90% 30.03 in - Calm Calm - N/A   Unknown
7:35 AM - - - N/A% - - North - - N/A   Unknown
7:55 AM 61.9 °F - 54.9 °F 78% 30.04 in - SSE 3.5 mph - N/A   Unknown
8:15 AM 63.7 °F - 55.4 °F 74% 30.04 in - SSE 3.5 mph - N/A   Unknown
8:35 AM - - - N/A% - - North - - N/A   Unknown
8:55 AM - - - N/A% - - North - - N/A   Unknown
9:15 AM 69.8 °F - 56.7 °F 63% 30.05 in - SSW 5.8 mph - N/A   Unknown
9:35 AM 71.1 °F - 55.4 °F 58% 30.05 in - SSW 8.1 mph - N/A   Unknown
9:55 AM - - - N/A% - - North - - N/A   Unknown
10:15 AM 74.5 °F - 53.6 °F 48% 30.05 in - South 9.2 mph - N/A   Unknown
10:55 AM - - - N/A% - - North - - N/A   Unknown
11:15 AM 77.5 °F - 52.9 °F 42% 30.06 in - South 9.2 mph - N/A   Unknown
11:35 AM 79.0 °F - 53.1 °F 40% 30.07 in - SSW 5.8 mph - N/A   Unknown
11:55 AM - - - N/A% - - North - - N/A   Unknown
12:15 PM 80.1 °F - 52.3 °F 38% 30.06 in - South 10.4 mph - N/A   Unknown
12:35 PM 81.5 °F - 51.4 °F 35% 30.05 in - SSE 10.4 mph - N/A   Unknown
1:15 PM - - - N/A% - - North - - N/A   Unknown
1:35 PM 84.0 °F - 52.0 °F 33% 30.03 in - SSE 9.2 mph - N/A   Unknown
1:55 PM 83.7 °F - 51.8 °F 33% 30.03 in - SSE 11.5 mph - N/A   Unknown
2:15 PM - - - N/A% - - North - - N/A   Unknown
2:35 PM 84.0 °F - 52.3 °F 33% 30.02 in - South 10.4 mph - N/A   Unknown
2:55 PM 83.5 °F - 52.9 °F 35% 30.01 in - South 8.1 mph - N/A   Unknown
3:15 PM - - - N/A% - - North - - N/A   Unknown
3:35 PM 85.1 °F - 52.2 °F 32% 29.99 in - SSE 9.2 mph - N/A   Unknown
3:55 PM 84.7 °F - 52.7 °F 33% 29.98 in - SE 8.1 mph - N/A   Unknown
4:15 PM - - - N/A% - - North - - N/A   Unknown
4:35 PM 86.0 °F - 52.2 °F 31% 29.97 in - South 6.9 mph - N/A   Unknown
4:55 PM 86.0 °F - 51.4 °F 30% 29.96 in - South 11.5 mph - N/A   Unknown
5:15 PM - - - N/A% - - North - - N/A   Unknown
5:35 PM 84.4 °F - 51.6 °F 32% 29.96 in - SSE 12.7 mph - N/A   Unknown
5:55 PM 84.6 °F - 52.3 °F 33% 29.96 in - SSE 11.5 mph - N/A   Unknown
6:35 PM 82.9 °F 82.0 °F 54.9 °F 38% 29.95 in - North - - N/A   Unknown
6:55 PM 81.7 °F 81.3 °F 55.6 °F 41% 29.95 in - SE 9.2 mph - N/A   Unknown
7:35 PM 79.9 °F - 56.5 °F 45% 29.95 in - North - - N/A   Unknown
7:55 PM 77.9 °F - 55.8 °F 46% 29.94 in - SE 9.2 mph - N/A   Unknown
8:15 PM 76.8 °F - 55.6 °F 48% 29.95 in - SE 6.9 mph - N/A   Unknown
8:35 PM - - - N/A% - - North - - N/A   Unknown
8:55 PM 74.8 °F - 56.3 °F 52% 29.95 in - ESE 6.9 mph - N/A   Unknown
9:15 PM 74.8 °F - 55.8 °F 51% 29.95 in - SE 10.4 mph - N/A   Unknown
9:35 PM - - - N/A% - - North - - N/A   Unknown
10:15 PM 73.0 °F - 55.4 °F 54% 29.95 in - SSE 9.2 mph - N/A   Unknown
10:35 PM - - - N/A% - - North - - N/A   Unknown
10:55 PM 72.0 °F - 56.3 °F 58% 29.97 in - SSE 6.9 mph - N/A   Unknown
11:55 PM 70.2 °F - 56.8 °F 63% 29.98 in - South 9.2 mph - N/A   Unknown